Rock Hill, SC

3:42 PM EST on February 20, 2017 (GMT -0500)
Rock Hill-York County-Bryant

Weather History for KUZA - February, 2014

Change the Weather History Date:

Monday, February 3, 2014

  Actual Average Record
Temperature  
Mean Temperature 59 °F -  
Max Temperature 70 °F 55 °F 80 °F (1989)
Min Temperature 48 °F 34 °F 15 °F (1951)
Degree Days  
Heating Degree Days 6    
Growing Degree Days 9 (Base 50)    
Moisture  
Dew Point 54 °F    
Average Humidity 82    
Maximum Humidity 97    
Minimum Humidity 54    
Precipitation  
Precipitation 0.18 in - - ()
Sea Level Pressure  
Sea Level Pressure 29.97 in    
Wind  
Wind Speed 9 mph (SW)    
Max Wind Speed 16 mph    
Max Gust Speed 26 mph    
Visibility 8 miles    
Events Rain    
Averages and records for this station are not official NWS values.
T = Trace of Precipitation, MM = Missing Value Source: NWS Daily Summary

Daily Weather History Graph

Daily Weather History Graph

Search for Another Location

Airport or City:

Trip Planner

Search our weather history database for the weather conditions in past years. The results will help you decide how hot, cold, wet, or windy it might be!

Date:

Astronomy

Feb. 03, 2014 Rise Set
Actual Time 7:21 AM EST 5:55 PM EST
Civil Twilight 6:54 AM EST 6:21 PM EST
Nautical Twilight 6:24 AM EST 6:51 PM EST
Astronomical Twilight 5:55 AM EST 7:21 PM EST
Moon 9:34 AM EST (2/3) 10:30 PM EST (2/3)
Length of Visible Light 11h 26m
Length of Day
10h 33m
Waxing Crescent, 19% of the Moon is Illuminated
Feb 3
Waxing Crescent
Feb 6
First Quarter
Feb 14
Full
Feb 22
Last Quarter
Mar 1
New

Hourly Weather History & Observations

Time (EST) Temp. Dew Point Humidity Pressure Visibility Wind Dir Wind Speed Gust Speed Precip Events Conditions
12:54 AM 55.0 °F 51.1 °F 86% 29.96 in 10.0 mi South 5.8 mph - N/A   Mostly Cloudy
1:54 AM 55.9 °F 52.0 °F 87% 29.94 in 10.0 mi South 9.2 mph - N/A   Overcast
2:54 AM 55.9 °F 53.1 °F 90% 29.91 in 10.0 mi South 11.5 mph - N/A   Mostly Cloudy
3:30 AM 57.0 °F 53.1 °F 87% 29.91 in 10.0 mi South 9.2 mph - N/A   Overcast
3:54 AM 57.9 °F 54.0 °F 87% 29.88 in 10.0 mi South 11.5 mph 19.6 mph N/A   Overcast
4:06 AM 57.9 °F 54.0 °F 87% 29.90 in 10.0 mi South 11.5 mph 19.6 mph N/A   Overcast
4:54 AM 60.1 °F 55.9 °F 86% 29.87 in 10.0 mi SSW 11.5 mph - N/A   Overcast
5:54 AM 60.1 °F 55.9 °F 86% 29.87 in 9.0 mi SSW 11.5 mph 21.9 mph N/A   Mostly Cloudy
6:37 AM 60.1 °F 57.0 °F 90% 29.88 in 9.0 mi SSW 12.7 mph - N/A   Overcast
6:54 AM 61.0 °F 57.0 °F 87% 29.88 in 9.0 mi SSW 10.4 mph 19.6 mph N/A   Overcast
7:46 AM 60.1 °F 57.9 °F 93% 29.93 in 1.8 mi SW 8.1 mph - 0.04 in Rain Heavy Rain
7:54 AM 60.1 °F 59.0 °F 96% 29.92 in 1.5 mi SW 10.4 mph - 0.06 in Rain Rain
8:00 AM 60.1 °F 59.0 °F 96% 29.93 in 2.0 mi SW 10.4 mph - 0.01 in Rain Rain
8:05 AM 60.1 °F 59.0 °F 96% 29.94 in 2.0 mi SSW 10.4 mph - 0.01 in Rain Light Rain
8:14 AM 60.1 °F 59.0 °F 96% 29.94 in 3.0 mi SW 8.1 mph - 0.02 in Rain Light Rain
8:21 AM 61.0 °F 59.0 °F 93% 29.95 in 2.5 mi SW 9.2 mph - 0.02 in Rain Light Rain
8:38 AM 61.0 °F 59.0 °F 93% 29.96 in 2.0 mi NW 6.9 mph - 0.03 in Rain Light Rain
8:45 AM 61.0 °F 60.1 °F 97% 29.96 in 0.8 mi West 4.6 mph - 0.07 in Rain Heavy Rain
8:54 AM 61.0 °F 60.1 °F 97% 29.95 in 1.0 mi SW 8.1 mph - 0.11 in Rain Rain
9:00 AM 61.0 °F 60.1 °F 97% 29.96 in 3.0 mi WSW 8.1 mph - 0.00 in Rain Light Rain
9:48 AM 62.6 °F 60.8 °F 94% 29.95 in 7.0 mi SSW 10.4 mph - 0.01 in   Overcast
9:49 AM 63.0 °F 61.0 °F 93% 29.94 in 7.0 mi SSW 10.4 mph - 0.01 in   Overcast
10:02 AM 63.0 °F 61.0 °F 93% 29.95 in 7.0 mi South 11.5 mph - 0.00 in Rain Light Rain
10:54 AM 63.0 °F 61.0 °F 93% 29.95 in 10.0 mi SW 11.5 mph - 0.00 in   Overcast
11:54 AM 64.9 °F 57.9 °F 78% 29.96 in 10.0 mi WSW 16.1 mph 26.5 mph N/A   Overcast
12:12 PM 66.0 °F 57.9 °F 75% 29.97 in 10.0 mi WSW 16.1 mph 23.0 mph N/A   Overcast
12:54 PM 66.0 °F 57.0 °F 73% 29.95 in 10.0 mi WSW 9.2 mph 19.6 mph N/A   Overcast
1:13 PM 66.9 °F 55.9 °F 68% 29.96 in 10.0 mi West 6.9 mph 19.6 mph N/A   Mostly Cloudy
1:54 PM 69.1 °F 55.0 °F 61% 29.94 in 10.0 mi West 12.7 mph - N/A   Mostly Cloudy
2:54 PM 70.0 °F 54.0 °F 57% 29.96 in 10.0 mi West 8.1 mph - N/A   Partly Cloudy
3:54 PM 68.0 °F 52.0 °F 56% 29.97 in 10.0 mi WSW 5.8 mph - N/A   Partly Cloudy
4:54 PM 66.9 °F 50.0 °F 54% 29.99 in 10.0 mi NNE 9.2 mph - N/A   Mostly Cloudy
5:54 PM 61.0 °F 48.0 °F 62% 30.04 in 10.0 mi Calm Calm - N/A   Mostly Cloudy
6:54 PM 59.0 °F 46.0 °F 62% 30.08 in 10.0 mi ENE 6.9 mph - N/A   Overcast
7:54 PM 55.9 °F 45.0 °F 67% 30.11 in 10.0 mi East 6.9 mph - N/A   Overcast
8:54 PM 53.1 °F 43.0 °F 69% 30.14 in 10.0 mi ENE 6.9 mph - N/A   Overcast
9:54 PM 50.0 °F 42.1 °F 74% 30.18 in 10.0 mi ENE 9.2 mph - N/A   Overcast
10:54 PM 48.9 °F 39.9 °F 71% 30.20 in 10.0 mi ENE 6.9 mph 18.4 mph N/A   Overcast
11:54 PM 48.0 °F 39.9 °F 74% 30.21 in 10.0 mi NE 8.1 mph - N/A   Overcast